• In Romania
  • List of Countries
  • For 7 days
  • Water Temperature
  • Satellite Maps
  • Weather Map
  • Weather Widgets
  • user-avatar
    Login

    Hourly Weather Dubovyy Umet

    Today, 19 October, Friday

    Time Temperature Precipitation Wind Pressure Humidity
    00:00 +7°C° 0 mm 3 mps 754 mmHg 64%
    01:00 +7°C° 0 mm 3 mps 754 mmHg 67%
    02:00 +7°C° 0 mm 3 mps 754 mmHg 69%
    03:00 +6°C° 0 mm 4 mps 754 mmHg 71%
    04:00 +5°C° 0 mm 4 mps 753 mmHg 74%
    05:00 +5°C° 0 mm 4 mps 753 mmHg 77%
    06:00 +5°C° 0 mm 4 mps 753 mmHg 79%
    07:00 +7°C° 0 mm 4 mps 753 mmHg 77%
    08:00 +8°C° 0 mm 5 mps 753 mmHg 74%
    09:00 +9°C° 0 mm 5 mps 753 mmHg 71%
    10:00 +12°C° 0 mm 5 mps 752 mmHg 67%
    11:00 +13°C° 0 mm 6 mps 752 mmHg 62%
    12:00 +15°C° 0 mm 6 mps 752 mmHg 58%
    13:00 +15°C° 0 mm 6 mps 752 mmHg 58%
    14:00 +15°C° 0 mm 6 mps 752 mmHg 57%
    15:00 +16°C° 0 mm 5 mps 751 mmHg 56%
    16:00 +15°C° 0 mm 5 mps 751 mmHg 60%
    17:00 +13°C° 0 mm 5 mps 751 mmHg 64%
    18:00 +12°C° 0 mm 5 mps 751 mmHg 68%
    19:00 +12°C° 0 mm 5 mps 751 mmHg 68%
    20:00 +12°C° 0 mm 5 mps 751 mmHg 68%
    21:00 +10°C° 0 mm 5 mps 751 mmHg 68%
    22:00 +10°C° 0 mm 5 mps 750 mmHg 68%
    23:00 +10°C° 0 mm 5 mps 750 mmHg 67%

    Tomorrow, 20 October, Saturday

    Time Temperature Precipitation Wind Pressure Humidity
    00:00 +10°C° 0 mm 5 mps 750 mmHg 67%
    01:00 +10°C° 0 mm 5 mps 750 mmHg 67%
    02:00 +10°C° 0 mm 5 mps 750 mmHg 66%
    03:00 +10°C° 0 mm 5 mps 749 mmHg 66%
    04:00 +9°C° 0 mm 5 mps 749 mmHg 67%
    05:00 +8°C° 0 mm 5 mps 749 mmHg 68%
    06:00 +8°C° 0 mm 5 mps 749 mmHg 69%
    07:00 +9°C° 0 mm 5 mps 749 mmHg 66%
    08:00 +10°C° 0 mm 5 mps 749 mmHg 63%
    09:00 +10°C° 0 mm 5 mps 749 mmHg 59%
    10:00 +12°C° 0 mm 5 mps 749 mmHg 58%
    11:00 +13°C° 0 mm 5 mps 749 mmHg 57%
    12:00 +14°C° 0 mm 5 mps 749 mmHg 55%
    13:00 +14°C° 0 mm 5 mps 749 mmHg 59%
    14:00 +14°C° 0 mm 5 mps 749 mmHg 63%
    15:00 +13°C° 0 mm 4 mps 749 mmHg 67%
    16:00 +12°C° 0 mm 4 mps 749 mmHg 72%
    17:00 +11°C° 0 mm 3 mps 749 mmHg 77%
    18:00 +10°C° 0 mm 2 mps 749 mmHg 83%
    19:00 +9°C° 0 mm 2 mps 750 mmHg 82%
    20:00 +9°C° 0 mm 2 mps 750 mmHg 82%
    21:00 +8°C° 0 mm 2 mps 750 mmHg 81%
    22:00 +7°C° 0 mm 2 mps 751 mmHg 82%
    23:00 +7°C° 0 mm 2 mps 751 mmHg 82%

    Day after tomorrow, 21 October, Sunday

    Time Temperature Precipitation Wind Pressure Humidity
    00:00 +6°C° 0 mm 2 mps 751 mmHg 82%
    01:00 +6°C° 0 mm 2 mps 752 mmHg 84%
    02:00 +5°C° 0 mm 2 mps 752 mmHg 85%
    03:00 +5°C° 0 mm 2 mps 752 mmHg 87%
    04:00 +5°C° 0 mm 2 mps 752 mmHg 88%
    05:00 +5°C° 0 mm 1 mps 753 mmHg 89%
    06:00 +5°C° 0 mm 1 mps 753 mmHg 90%
    07:00 +5°C° 0 mm 2 mps 753 mmHg 84%
    08:00 +6°C° 0 mm 2 mps 754 mmHg 79%
    09:00 +7°C° 0 mm 2 mps 754 mmHg 73%
    10:00 +8°C° 0 mm 2 mps 754 mmHg 68%
    11:00 +9°C° 0 mm 2 mps 755 mmHg 63%
    12:00 +10°C° 0 mm 2 mps 755 mmHg 58%
    13:00 +10°C° 0 mm 2 mps 755 mmHg 57%
    14:00 +10°C° 0 mm 2 mps 755 mmHg 57%
    15:00 +10°C° 0 mm 2 mps 755 mmHg 57%
    16:00 +9°C° 0 mm 2 mps 755 mmHg 62%
    17:00 +8°C° 0 mm 2 mps 755 mmHg 67%
    18:00 +6°C° 0 mm 2 mps 756 mmHg 73%
    19:00 +6°C° 0 mm 2 mps 756 mmHg 76%
    20:00 +5°C° 0 mm 2 mps 756 mmHg 78%
    21:00 +5°C° 0 mm 2 mps 756 mmHg 81%
    22:00 +5°C° 0 mm 2 mps 756 mmHg 82%
    23:00 +4°C° 0 mm 2 mps 756 mmHg 84%

    22 October, Monday

    Time Temperature Precipitation Wind Pressure Humidity
    00:00 +4°C° 0 mm 2 mps 756 mmHg 85%
    01:00 +4°C° 0 mm 2 mps 757 mmHg 86%
    02:00 +3°C° 0 mm 2 mps 757 mmHg 88%
    03:00 +4°C° 0 mm 1 mps 757 mmHg 89%
    04:00 +3°C° 0 mm 2 mps 757 mmHg 89%
    05:00 +2°C° 0 mm 2 mps 757 mmHg 90%
    06:00 +2°C° 0 mm 2 mps 757 mmHg 90%
    07:00 +3°C° 0 mm 2 mps 757 mmHg 85%
    08:00 +4°C° 0 mm 2 mps 758 mmHg 79%
    09:00 +5°C° 0 mm 2 mps 758 mmHg 74%
    10:00 +6°C° 0 mm 2 mps 758 mmHg 68%
    11:00 +7°C° 0 mm 2 mps 758 mmHg 63%
    12:00 +8°C° 0 mm 2 mps 758 mmHg 57%
    13:00 +8°C° 0 mm 2 mps 758 mmHg 56%
    14:00 +8°C° 0 mm 2 mps 757 mmHg 55%
    15:00 +9°C° 0 mm 1 mps 757 mmHg 54%
    16:00 +8°C° 0 mm 1 mps 757 mmHg 58%
    17:00 +6°C° 0 mm 2 mps 757 mmHg 62%
    18:00 +5°C° 0 mm 2 mps 757 mmHg 67%
    19:00 +5°C° 0 mm 2 mps 757 mmHg 68%
    20:00 +4°C° 0 mm 2 mps 757 mmHg 70%
    21:00 +4°C° 0 mm 2 mps 757 mmHg 71%
    22:00 +3°C° 0 mm 2 mps 757 mmHg 72%
    23:00 +3°C° 0 mm 2 mps 757 mmHg 73%

    23 October, Tuesday

    Time Temperature Precipitation Wind Pressure Humidity
    00:00 +3°C° 0 mm 2 mps 756 mmHg 74%
    01:00 +3°C° 0 mm 2 mps 756 mmHg 75%
    02:00 +2°C° 0 mm 2 mps 756 mmHg 76%
    03:00 +2°C° 0 mm 2 mps 756 mmHg 78%
    04:00 +2°C° 0 mm 2 mps 756 mmHg 79%
    05:00 +2°C° 0 mm 2 mps 756 mmHg 80%
    06:00 +1°C° 0 mm 2 mps 756 mmHg 81%
    07:00 +3°C° 0 mm 2 mps 756 mmHg 74%
    08:00 +3°C° 0 mm 3 mps 756 mmHg 68%
    09:00 +4°C° 0 mm 3 mps 756 mmHg 61%
    10:00 +7°C° 0 mm 3 mps 755 mmHg 55%
    11:00 +8°C° 0 mm 3 mps 755 mmHg 49%
    12:00 +8°C° 0 mm 4 mps 755 mmHg 43%
    13:00 +10°C° 0 mm 4 mps 754 mmHg 42%
    14:00 +10°C° 0 mm 4 mps 754 mmHg 41%
    15:00 +10°C° 0 mm 4 mps 753 mmHg 41%
    16:00 +8°C° 0 mm 4 mps 753 mmHg 44%
    17:00 +8°C° 0 mm 3 mps 753 mmHg 47%
    18:00 +7°C° 0 mm 3 mps 752 mmHg 50%
    19:00 +7°C° 0 mm 4 mps 752 mmHg 50%
    20:00 +7°C° 0 mm 4 mps 751 mmHg 50%
    21:00 +7°C° 0 mm 4 mps 751 mmHg 50%
    22:00 +7°C° 0 mm 4 mps 750 mmHg 53%
    23:00 +7°C° 0 mm 4 mps 750 mmHg 55%

    24 October, Wednesday

    Time Temperature Precipitation Wind Pressure Humidity
    00:00 +7°C° 0 mm 4 mps 750 mmHg 57%
    01:00 +8°C° 0 mm 4 mps 749 mmHg 57%
    02:00 +8°C° 0 mm 4 mps 749 mmHg 57%
    03:00 +8°C° 0 mm 4 mps 748 mmHg 58%
    04:00 +8°C° 0 mm 5 mps 748 mmHg 59%
    05:00 +8°C° 0 mm 5 mps 747 mmHg 61%
    06:00 +8°C° 0 mm 5 mps 747 mmHg 62%
    07:00 +9°C° 0 mm 6 mps 746 mmHg 60%
    08:00 +10°C° 0 mm 6 mps 746 mmHg 57%
    09:00 +11°C° 0 mm 7 mps 746 mmHg 55%
    10:00 +10°C° 0.5 mm 7 mps 745 mmHg 60%
    11:00 +10°C° 0.5 mm 6 mps 745 mmHg 65%
    12:00 +9°C° 0.5 mm 6 mps 744 mmHg 71%
    13:00 +9°C° 0.5 mm 6 mps 744 mmHg 74%
    14:00 +9°C° 0.5 mm 6 mps 743 mmHg 78%
    15:00 +9°C° 0.5 mm 6 mps 743 mmHg 82%
    16:00 +9°C° 0 mm 6 mps 743 mmHg 82%
    17:00 +9°C° 0 mm 5 mps 742 mmHg 82%
    18:00 +10°C° 0 mm 4 mps 742 mmHg 83%
    19:00 +10°C° 0 mm 4 mps 742 mmHg 84%
    20:00 +8°C° 0 mm 4 mps 742 mmHg 84%
    21:00 +9°C° 0 mm 3 mps 741 mmHg 85%
    22:00 +9°C° 0 mm 3 mps 741 mmHg 83%
    23:00 +8°C° 0 mm 4 mps 741 mmHg 81%
    Show more